Regional Weather Roundup
Issued by NWS State College, PA

Home | Current Version | Previous Version | Graphics & Text | Print | Product List | Glossary Off
Versions: 1 2 3 4 5 6 7 8 9 10 11 12 13 14 15 16 17 18 19 20 21 22 23 24 25 26 27 28 29 30 31 32 33 34 35 36 37 38 39 40 41 42 43 44 45 46 47 48 49 50

000
ASUS41 KCTP 191003
RWRCTP

REGIONAL WEATHER ROUNDUP
NATIONAL WEATHER SERVICE STATE COLLEGE PA
600 AM EDT SAT AUG 19 2017

Note: "fair" indicates few or no clouds below 12,000 feet with no
significant weather and/or obstructions to visibility.

* = STATION THAT DOES NOT REPORT PRECIPITATION /E.G. RAIN...SNOW...ETC/
    THUNDER OR FOG.

PAZ002>004-007>009-013>016-020>023-029>032-191100-
WESTERN PENNSYLVANIA

CITY           SKY/WX    TMP DP  RH WIND       PRES   REMARKS
ERIE           PTCLDY    66  62  87 S6        29.86R
MEADVILLE      PTCLDY    63  63 100 SW3       29.90R
FRANKLIN*      CLEAR     63  57  82 SW6       29.92R
NEW CASTLE     FAIR      61  61 100 SW3       29.92R
BEAVER COUNTY  NOT AVBL
BUTLER*        CLEAR     61  61 100 CALM      29.93R
PITTSBURGH INT PTCLDY    66  64  93 CALM      29.92R
PITTSBURGH     MOCLDY    67  62  84 SW7       29.92R
INDIANA*       CLOUDY    63  63 100 CALM      29.95S FOG
LATROBE        PTCLDY    64  64 100 SW5       29.94R
WASHINGTON CO* CLEAR     63  61  94 CALM      29.93S
$$

PAZ004>006-010>012-017>019-024>028-033>037-041-042-045-046-049>053-191100-
CENTRAL PENNSYLVANIA

CITY           SKY/WX    TMP DP  RH WIND       PRES   REMARKS
BRADFORD       PTCLDY    60  60 100 SW3       29.91R
DUBOIS         PTCLDY    61  58  90 W8        29.91S
CLEARFIELD     MOCLDY    63  63 100 SW6       29.92R
JOHNSTOWN      PTCLDY    64  62  93 SW8       29.95S
ALTOONA        PTCLDY    62  62 100 S3        29.93R
STATE COLLEGE  PTCLDY    63  61  94 CALM      29.91R
WILLIAMSPORT   CLEAR     68  67  96 CALM      29.86R
SELINSGROVE    FOG       64  64 100 CALM      29.88R VSB 1
FT INDIANTOWN  CLEAR     67  67 100 CALM      29.86R
CAPITAL CITY   CLEAR     70  64  81 W3        29.87R
HARRISBURG     PTCLDY    71  67  87 N5        29.86R
YORK           CLEAR     69  67  93 W3        29.88R
$$

PAZ038>040-043-044-047-048-054-055-060>062-067>071-191100-
EASTERN PENNSYLVANIA

CITY           SKY/WX    TMP DP  RH WIND       PRES   REMARKS
SCRANTON       CLOUDY    69  69 100 SW3       29.86R FOG
MOUNT POCONO   PTCLDY    64  64 100 W6        29.90R
ALLENTOWN      PTCLDY    70  68  93 MISG      29.85R FOG
QUAKERTOWN*    SUNNY     72  72 100 CALM      29.86R
READING        CLEAR     72  72 100 CALM      29.84R
LANCASTER      PTCLDY    71  71 100 W7        29.86R
COATESVILLE    MOSUNNY   72  72 100 W8        29.88R
POTTSTOWN      PTCLDY    71  71 100 CALM      29.86R FOG
BLUE BELL      MOCLDY    72  72 100 CALM      29.85S
DOYLESTOWN     PTCLDY    72  72 100 W5        29.84R
WILLOW GROVE   NOT AVBL
NORTH PHILA    MOCLDY    76  73  91 CALM      29.84S
PHILADELPHIA   MOCLDY    76  72  87 W8        29.84R
$$




USA.gov is the U.S. government's official web portal to all federal, state and local government web resources and services.